Location: Unspecified
(0.0000°N, 0.0000°E)
Time: 07:33:17
(UTC+00:00)

Vanguard 2 - Pass Details

Date: 24 September 2019
Orbit: 554 x 2937 km, 32.9° (Epoch: 14 October)

Event Time Altitude Azimuth Distance (km) Brightness Sun altitude
Rises 17:16:57 0° 202° (SSW) 4,580 11.8 8.8°
Maximum altitude 17:26:20 10° 155° (SSE) 4,502 11.2 6.4°
Drops below altitude 10° 17:26:26 10° 155° (SSE) 4,511 11.2 6.4°
Sets 17:38:46 0° 113° (ESE) 6,379 11.6 3.3°
